[[{"header":{"parameterUnit":"m.s-1","parameterCategory":1,"la1":30.2991,"la2":30.254,"lo1":-89.0895,"lo2":-89.0444,"dy":0.0017,"dx":0.0017,"nx":28,"ny":28,"refTime":"2025-09-13T03:00:00:Z","depth":0,"parameterNumber":2,"parameterNumberName":"U-component_of_WINDS"},"data":[0,0,0,0,0,0,0,0,0,0,0,0,0,0,0,0,0,0,0,0,0,0,0,0,0,0,0,0,0,0,0,0,0,0,0,0,0,0,0,0,0,0,0,0,0,0,0,0,0,0,0,0,0,0,0,0,0,0,0.8217,0.8218,0,0.8347,0.8348,0.835,0.8407,0.8407,0.8406,0.8406,0.854,0.8544,0.8548,0,0,0,0,0,0,0,0,0,0,0,0,0,0.8015,0.8019,0.8217,0.8218,0.822,0.8347,0.8349,0.835,0.8407,0.8407,0.8406,0.8406,0.8539,0.8544,0.8548,0,0,0,0,0,0,0,0,0,0,0,0,0,0.812,0.802,0.8217,0.8263,0.8269,0.8346,0.8349,0.8351,0.8407,0.8406,0.8406,0.8406,0.8538,0.8543,0.8549,0.8589,0,0,0.8566,0.8568,0,0,0,0,0,0,0,0,0.8114,0.8127,0.8255,0.826,0.8267,0.836,0.8327,0.8431,0.8407,0.8354,0.8406,0.8406,0.8481,0.8491,0.8516,0.8596,0.8602,0.8566,0.857,0.8572,0.8574,0,0,0,0,0,0,0,0.8106,0.8122,0.8268,0.8257,0.8264,0.8277,0.8292,0.8347,0.8418,0.8359,0.8363,0.8378,0.8484,0.8511,0.852,0.8604,0.8566,0.8571,0.8575,0.8577,0.8719,0.872,0,0,0,0,0,0,0.8092,0.8115,0.8264,0.8272,0.8188,0.8281,0.8297,0.8331,0.8417,0.843,0.8378,0.838,0.8501,0.8513,0.8525,0.8576,0.8572,0.8578,0.8581,0.8719,0.8719,0.872,0,0,0,0,0,0,0.8087,0.8104,0.8259,0.8195,0.8216,0.8285,0.8322,0.8333,0.836,0.8432,0.8445,0.8392,0.8501,0.8517,0.8572,0.8582,0.858,0.8585,0.8718,0.8719,0.872,0.868,0,0,0,0,0,0,0.8081,0.8102,0.8119,0.8195,0.8219,0.8305,0.8322,0.8336,0.8369,0.8373,0.8449,0.8461,0.8502,0.8563,0.8578,0.8589,0.859,0.8718,0.8719,0.8719,0.8681,0.8679,0.8678,0,0,0,0,0,0.8074,0.8104,0.812,0.8138,0.8242,0.8305,0.8319,0.8366,0.837,0.8387,0.8432,0.8458,0.8578,0.8568,0.8585,0.8599,0.8717,0.8718,0.8719,0.8681,0.868,0.8678,0,0,0,0,0,0,0.8029,0.8115,0.8134,0.819,0.8239,0.8315,0.8338,0.8363,0.8413,0.8415,0.8471,0.8487,0.8537,0.8573,0.8561,0.8641,0.865,0.8654,0.8615,0.8614,0.8612,0.8603,0.8594,0,0,0,0,0,0.8025,0.807,0.8143,0.8185,0.8209,0.8268,0.8298,0.8329,0.8384,0.8405,0.8455,0.8507,0.8555,0.8587,0.8636,0.8686,0.8702,0.8703,0.8701,0.87,0.8703,0.8729,0.873,0.8723,0.8723,0.8723,0,0,0.8019,0.8071,0.8097,0.8177,0.822,0.8263,0.8286,0.8333,0.8366,0.8413,0.8467,0.8505,0.8566,0.8618,0.8643,0.865,0.8708,0.8701,0.8699,0.8703,0.873,0.8731,0.8731,0.8723,0.8723,0.8723,0,0,0.803,0.8074,0.8113,0.8154,0.8218,0.8257,0.8265,0.8336,0.8363,0.8418,0.8453,0.8493,0.8577,0.8618,0.865,0.8671,0.8696,0.8685,0.8678,0.8702,0.8703,0.8704,0.871,0.8711,0.8688,0.8688,0.8688,0,0.8014,0.8082,0.813,0.8174,0.8207,0.825,0.8288,0.8326,0.8402,0.8424,0.843,0.8533,0.8577,0.8638,0.8643,0.8668,0.8678,0.8677,0.8699,0.87,0.8702,0.8708,0.871,0.8686,0.8686,0.8686,0.8687,0,0.8058,0.8105,0.8128,0.8199,0.8235,0.8276,0.8329,0.8359,0.8386,0.8424,0.8478,0.8532,0.8591,0.8608,0.8636,0.8672,0.8673,0.8688,0.8699,0.87,0.8706,0.8709,0.8683,0.8684,0.8685,0.8685,0,0,0.8047,0.8141,0.8149,0.818,0.8251,0.8288,0.8329,0.8386,0.841,0.846,0.8495,0.8563,0.8576,0.8612,0.8644,0.8666,0.8677,0.8678,0.8681,0.8675,0.8717,0.8705,0.8707,0.8693,0.8694,0.8694,0.8711,0,0.8067,0.8143,0.8186,0.8244,0.8286,0.8325,0.8361,0.8407,0.8443,0.8483,0.8522,0.8568,0.8583,0.8605,0.8628,0.867,0.8686,0.867,0.8726,0.8727,0.8709,0.8711,0.87,0.8713,0.8715,0.8715,0.8715,0,0.8101,0.8148,0.821,0.8273,0.8292,0.8324,0.8378,0.8416,0.8468,0.8492,0.853,0.8561,0.8605,0.8611,0.867,0.8658,0.8683,0.8707,0.8709,0.8716,0.8722,0.8718,0.8719,0.8721,0.872,0.872,0.872,0,0.8084,0.8164,0.821,0.8236,0.8311,0.8332,0.8364,0.8416,0.8447,0.8494,0.8513,0.8565,0.8593,0.8631,0.8675,0.8675,0.8729,0.8739,0.875,0.8748,0.876,0.8759,0.8765,0.8776,0.8776,0.8776,0.8776,0,0.8101,0.8137,0.8204,0.8232,0.8273,0.832,0.8359,0.8394,0.8439,0.8475,0.8512,0.8544,0.8599,0.8638,0.8672,0.8715,0.8728,0.8748,0.8756,0.8744,0.8742,0.8762,0.8762,0.8777,0.8777,0.8777,0.8776,0,0.8091,0.8137,0.819,0.8255,0.8272,0.8299,0.8355,0.8384,0.8419,0.8463,0.8476,0.8532,0.8579,0.8626,0.869,0.8713,0.8754,0.8767,0.8736,0.8741,0.8748,0.8747,0.8768,0.8772,0.878,0.878,0.878,0,0.8099,0.8127,0.8195,0.822,0.8251,0.8293,0.8323,0.837,0.84,0.846,0.848,0.853,0.8572,0.8644,0.8691,0.8739,0.8752,0.8755,0.8759,0.8745,0.875,0.8748,0.875,0.8754,0.8754,0.8753,0.8753,0,0.8107,0.8127,0.817,0.8219,0.8254,0.8296,0.8339,0.8357,0.8412,0.8443,0.8491,0.8523,0.8586,0.8634,0.8687,0.8719,0.8745,0.8751,0.8756,0.8744,0.8725,0.8734,0.8732,0.8751,0.8751,0.8751,0.8751,0.8752,0.8106,0.8131,0.8182,0.8227,0.8264,0.8302,0.8331,0.8369,0.841,0.8465,0.8489,0.8537,0.8585,0.8658,0.869,0.8727,0.8734,0.8741,0.8743,0.8744,0.874,0.8718,0.8737,0.8737,0.8737,0.8737,0.8737,0,0.8115,0.8149,0.819,0.8247,0.8282,0.8301,0.8349,0.8376,0.8417,0.8461,0.85,0.8553,0.8599,0.8647,0.8695,0.8715,0.8728,0.8726,0.8725,0.8732,0.8732,0.8723,0.8715,0.8715,0.8715,0.8715,0.8715,0.8715,0.8124,0.8168,0.8194,0.8255,0.8289,0.8335,0.836,0.8394,0.8429,0.8486,0.8524,0.8555,0.8599,0.865,0.8692,0.8705,0.8721,0.8715,0.8731,0.8731,0.8732,0.8734,0.8725,0.8719,0.8719,0.8728,0.8729,0.8729]},{"header":{"parameterUnit":"m.s-1","parameterCategory":1,"la1":30.2991,"la2":30.254,"lo1":-89.0895,"lo2":-89.0444,"dy":0.0017,"dx":0.0017,"nx":28,"ny":28,"refTime":"2025-09-13T03:00:00:Z","depth":0,"parameterNumber":3,"parameterNumberName":"V-component_of_WINDS"},"data":[0,0,0,0,0,0,0,0,0,0,0,0,0,0,0,0,0,0,0,0,0,0,0,0,0,0,0,0,0,0,0,0,0,0,0,0,0,0,0,0,0,0,0,0,0,0,0,0,0,0,0,0,0,0,0,0,0,0,3.7284,3.7284,0,3.7266,3.7266,3.7266,3.7258,3.7259,3.7259,3.7259,3.7238,3.7237,3.7237,0,0,0,0,0,0,0,0,0,0,0,0,0,3.7309,3.7309,3.7284,3.7284,3.7284,3.7266,3.7266,3.7266,3.7258,3.7259,3.7259,3.7259,3.7238,3.7238,3.7237,0,0,0,0,0,0,0,0,0,0,0,0,0,3.7295,3.7308,3.7284,3.7278,3.7277,3.7266,3.7266,3.7266,3.7258,3.7259,3.7259,3.7259,3.7238,3.7238,3.7237,3.723,0,0,3.7234,3.7234,0,0,0,0,0,0,0,0,3.7296,3.7294,3.7279,3.7278,3.7277,3.7265,3.7267,3.7253,3.7258,3.7265,3.7259,3.7259,3.7247,3.7245,3.7242,3.7229,3.7228,3.7234,3.7233,3.7233,3.7233,0,0,0,0,0,0,0,3.7297,3.7295,3.7277,3.7279,3.7278,3.7275,3.7273,3.7264,3.7256,3.7265,3.7264,3.7262,3.7246,3.7242,3.7241,3.7228,3.7234,3.7233,3.7233,3.7232,3.7206,3.7206,0,0,0,0,0,0,3.7299,3.7296,3.7277,3.7276,3.7287,3.7275,3.7273,3.7269,3.7256,3.7254,3.7262,3.7262,3.7244,3.7242,3.724,3.723,3.7233,3.7232,3.7232,3.7207,3.7206,3.7206,0,0,0,0,0,0,3.73,3.7298,3.7278,3.7286,3.7283,3.7274,3.727,3.7268,3.7264,3.7254,3.7252,3.726,3.7244,3.7241,3.7232,3.7229,3.7232,3.7231,3.7207,3.7206,3.7206,3.7211,0,0,0,0,0,0,3.7301,3.7298,3.7296,3.7286,3.7283,3.7271,3.727,3.7268,3.7263,3.7263,3.7252,3.725,3.7244,3.7234,3.7231,3.7228,3.723,3.7207,3.7207,3.7206,3.7211,3.7211,3.7211,0,0,0,0,0,3.7302,3.7298,3.7296,3.7294,3.728,3.7271,3.7269,3.7263,3.7263,3.726,3.7253,3.725,3.723,3.7233,3.723,3.7227,3.7207,3.7207,3.7206,3.7211,3.7211,3.7211,0,0,0,0,0,0,3.7307,3.7297,3.7294,3.7287,3.728,3.727,3.7267,3.7263,3.7256,3.7256,3.7247,3.7245,3.7236,3.723,3.7233,3.7218,3.7218,3.7217,3.7222,3.7222,3.7222,3.7224,3.723,0,0,0,0,0,3.7308,3.7302,3.7293,3.7288,3.7284,3.7276,3.7272,3.7268,3.726,3.7256,3.7249,3.7241,3.7232,3.7227,3.7219,3.721,3.7207,3.7206,3.7206,3.7206,3.7205,3.7198,3.7198,3.7205,3.7205,3.7205,0,0,3.7309,3.7302,3.7299,3.7288,3.7283,3.7276,3.7274,3.7267,3.7261,3.7255,3.7246,3.724,3.723,3.7221,3.7216,3.7216,3.7202,3.7206,3.7206,3.7205,3.7198,3.7197,3.7197,3.7205,3.7205,3.7205,0,0,3.7307,3.7302,3.7297,3.7291,3.7282,3.7276,3.7275,3.7265,3.7261,3.7251,3.7246,3.7239,3.7225,3.7218,3.7213,3.7207,3.7203,3.7204,3.7204,3.7197,3.7197,3.7196,3.7193,3.7192,3.7204,3.7204,3.7204,0,3.7309,3.73,3.7294,3.7288,3.7282,3.7277,3.727,3.7265,3.7253,3.7249,3.7249,3.7231,3.7224,3.7212,3.721,3.7207,3.7204,3.7205,3.7197,3.7197,3.7196,3.7193,3.7192,3.7204,3.7204,3.7204,3.7204,0,3.7303,3.7296,3.7292,3.7282,3.7276,3.727,3.7262,3.7257,3.7253,3.7247,3.7236,3.7228,3.7217,3.7214,3.721,3.7201,3.7201,3.7199,3.7199,3.7196,3.7192,3.7191,3.7204,3.7204,3.7204,3.7204,0,0,3.7305,3.729,3.7289,3.7284,3.7273,3.7267,3.726,3.725,3.7245,3.7237,3.723,3.7218,3.7216,3.7209,3.7204,3.7199,3.7193,3.7197,3.7197,3.7196,3.7181,3.7182,3.7181,3.719,3.719,3.719,3.7181,0,3.7301,3.7289,3.7282,3.7272,3.7265,3.7259,3.7252,3.7244,3.7238,3.723,3.7223,3.7214,3.7213,3.7209,3.7203,3.7195,3.719,3.7196,3.7182,3.7182,3.7185,3.7179,3.7181,3.7173,3.718,3.718,3.718,0,3.7295,3.7288,3.7277,3.7266,3.7263,3.7257,3.7247,3.724,3.723,3.7225,3.7218,3.7213,3.7203,3.7203,3.7189,3.7193,3.7187,3.7182,3.7182,3.718,3.718,3.7176,3.7171,3.7169,3.7178,3.7178,3.7178,0,3.7297,3.7284,3.7275,3.7271,3.7258,3.7254,3.7248,3.7238,3.7232,3.7223,3.7219,3.7208,3.7202,3.7193,3.7185,3.7186,3.7171,3.7171,3.7166,3.7166,3.7163,3.7163,3.7155,3.716,3.716,3.716,3.716,0,3.7293,3.7287,3.7276,3.727,3.7262,3.7255,3.7246,3.724,3.7231,3.7223,3.7217,3.721,3.7199,3.719,3.7183,3.7171,3.7169,3.7164,3.7162,3.7164,3.7165,3.716,3.716,3.716,3.716,3.716,3.716,0,3.7294,3.7286,3.7276,3.7265,3.7262,3.7256,3.7246,3.7239,3.7233,3.7223,3.722,3.7209,3.7198,3.7188,3.7173,3.7169,3.7156,3.7154,3.716,3.7159,3.7154,3.7154,3.7142,3.714,3.7147,3.7147,3.7147,0,3.7292,3.7287,3.7274,3.7269,3.7264,3.7255,3.7249,3.7241,3.7234,3.7222,3.7217,3.7205,3.7195,3.7177,3.7167,3.7155,3.7152,3.7149,3.7151,3.7152,3.7151,3.7151,3.715,3.7149,3.7149,3.7149,3.7149,0,3.7289,3.7285,3.7277,3.7267,3.726,3.7252,3.7243,3.7239,3.7228,3.7221,3.721,3.7202,3.7187,3.7175,3.7162,3.7154,3.7149,3.7148,3.7146,3.7148,3.7151,3.7148,3.7159,3.7149,3.7149,3.7149,3.7149,3.7149,3.7287,3.7282,3.7272,3.7263,3.7256,3.7247,3.7241,3.7233,3.7224,3.7211,3.7206,3.7194,3.7182,3.7164,3.7157,3.7146,3.7145,3.7143,3.7142,3.7141,3.7141,3.7153,3.7144,3.7144,3.7144,3.7144,3.7144,0,3.7283,3.7277,3.7268,3.7256,3.7248,3.7245,3.7235,3.7228,3.7218,3.7208,3.7199,3.7185,3.7173,3.7161,3.7148,3.7142,3.7139,3.7138,3.7138,3.7136,3.7143,3.7146,3.7141,3.7141,3.7141,3.7141,3.7141,3.7141,3.728,3.7271,3.7266,3.7251,3.7244,3.7233,3.7228,3.7219,3.7211,3.7196,3.7186,3.7179,3.7168,3.7154,3.7142,3.7138,3.7133,3.7133,3.7129,3.7136,3.7136,3.7136,3.7139,3.7132,3.7132,3.7123,3.7123,3.7123]}]]